Location: Liscomb Game Sanctuary
(45.1633°N, 62.5575°W)
Time: 11:01:46
(UTC-03:00)

COSMOS 2455 - Pass Details

Date: 22 February 2018
Orbit: 900 x 910 km, 67.1° (Epoch: 21 June)

Event Time Altitude Azimuth Distance (km) Brightness Sun altitude
Rises 20:59:06 0° 224° (SW) 3,511 6.2 -33.9°
Reaches altitude 10° 21:01:39 10° 229° (SW) 2,575 5.4 -34.3°
Enters shadow 21:05:30 39° 251° (WSW) 1,335 3.9 -34.9°
